Weather History for KLMO - August, 2014

Change the Weather History Date:

Sunday, August 17, 2014

  Actual Average (KBJC) Record (KBJC)
Temperature  
Mean Temperature 74 °F -  
Max Temperature 94 °F 83 °F 93 °F (2013)
Min Temperature 55 °F 59 °F 47 °F (1985)
Cooling Degree Days 10    
Growing Degree Days 24 (Base 50)    
Moisture  
Dew Point 46 °F    
Average Humidity 43    
Maximum Humidity 77    
Minimum Humidity 15    
Precipitation  
Precipitation 0.00 in - - ()
Sea Level Pressure  
Sea Level Pressure 30.13 in    
Wind  
Wind Speed 4 mph (SSE)    
Max Wind Speed 13 mph    
Max Gust Speed 20 mph    
Visibility 9 miles    
Events Rain    
Averages and records for this station are not official NWS values.
T = Trace of Precipitation, MM = Missing Value Source: NWS Daily Summary

Daily Weather History Graph

Daily Weather History Graph

Search for Another Location

Airport or City:

Trip Planner

Search our weather history database for the weather conditions in past years. The results will help you decide how hot, cold, wet, or windy it might be!

Date:

Astronomy

Aug. 17, 2014 Rise Set
Actual Time 6:13 AM MDT 7:54 PM MDT
Civil Twilight 5:45 AM MDT 8:23 PM MDT
Nautical Twilight 5:09 AM MDT 8:58 PM MDT
Astronomical Twilight 4:32 AM MDT 9:35 PM MDT
Moon No Moon Rise 2:02 PM MDT (8/17)
Length of Visible Light 14h 38m
Length of Day
13h 40m
Waning Gibbous, 48% of the Moon is Illuminated
Aug 17
Waning Gibbous
Aug 25
New
Sep 2
First Quarter
Sep 8
Full
Sep 15
Last Quarter

Hourly Weather History & Observations

Time (MDT) Temp. Dew Point Humidity Pressure Visibility Wind Dir Wind Speed Gust Speed Precip Events Conditions
12:14 AM 63.7 °F 50.2 °F 61% 30.13 in 10.0 mi SSW 4.6 mph - N/A   Clear
12:34 AM 64.4 °F 50.2 °F 60% 30.13 in 7.0 mi SW 3.5 mph - N/A   Clear
12:54 AM 61.0 °F 51.1 °F 70% 30.13 in 10.0 mi Calm Calm - N/A   Clear
1:14 AM 61.5 °F 48.9 °F 63% 30.12 in 7.0 mi West 4.6 mph - N/A   Clear
1:34 AM 61.3 °F 50.2 °F 67% 30.12 in 10.0 mi West 3.5 mph - N/A   Clear
1:54 AM 60.4 °F 49.8 °F 68% 30.12 in 10.0 mi Calm Calm - N/A   Clear
2:14 AM 61.7 °F 48.7 °F 62% 30.12 in 10.0 mi Calm Calm - N/A   Clear
2:34 AM 61.7 °F 49.1 °F 63% 30.12 in 10.0 mi Calm Calm - N/A   Clear
2:54 AM 59.9 °F 47.5 °F 64% 30.13 in 10.0 mi Calm Calm - N/A   Clear
3:14 AM 58.6 °F 49.1 °F 71% 30.13 in 10.0 mi Calm Calm - N/A   Clear
3:34 AM 57.6 °F 49.3 °F 74% 30.14 in 10.0 mi SSW 3.5 mph - N/A   Clear
3:54 AM 60.8 °F 47.5 °F 62% 30.14 in 10.0 mi SW 4.6 mph - N/A   Clear
4:14 AM 59.2 °F 47.1 °F 64% 30.14 in 10.0 mi Calm Calm - N/A   Clear
4:34 AM 58.3 °F 46.8 °F 66% 30.15 in 7.0 mi Calm Calm - N/A   Clear
4:54 AM 57.9 °F 47.3 °F 68% 30.15 in 10.0 mi Calm Calm - N/A   Clear
5:14 AM 56.7 °F 46.2 °F 68% 30.15 in 7.0 mi WNW 4.6 mph - N/A   Clear
5:34 AM 55.4 °F 48.4 °F 77% 30.15 in 7.0 mi SW 4.6 mph - N/A   Clear
5:54 AM 58.3 °F 46.4 °F 65% 30.15 in 10.0 mi WSW 3.5 mph - N/A   Clear
6:14 AM 58.3 °F 45.0 °F 61% 30.15 in 7.0 mi West 3.5 mph - N/A   Clear
6:34 AM 57.9 °F 45.5 °F 63% 30.17 in 7.0 mi West 3.5 mph - N/A   Clear
6:54 AM 61.0 °F 45.5 °F 57% 30.17 in 7.0 mi Calm Calm - N/A   Clear
7:14 AM 63.3 °F 51.6 °F 66% 30.17 in 7.0 mi Calm Calm - N/A   Clear
7:34 AM 66.0 °F 51.8 °F 60% 30.17 in 7.0 mi Calm Calm - N/A   Clear
7:54 AM 68.4 °F 51.6 °F 55% 30.17 in 7.0 mi Calm Calm - N/A   Clear
8:14 AM 70.5 °F 51.6 °F 51% 30.18 in 5.0 mi Calm Calm - N/A   Haze
8:34 AM 73.2 °F 51.1 °F 46% 30.18 in 7.0 mi NE 3.5 mph - N/A   Clear
8:54 AM 75.2 °F 50.7 °F 42% 30.18 in 7.0 mi East 4.6 mph - N/A   Clear
9:14 AM 77.0 °F 48.2 °F 36% 30.17 in 7.0 mi East 3.5 mph - N/A   Clear
9:34 AM 80.2 °F 47.8 °F 32% 30.17 in 10.0 mi East 5.8 mph - N/A   Clear
9:54 AM 81.3 °F 45.1 °F 28% 30.18 in 7.0 mi East 5.8 mph - N/A   Clear
10:14 AM 83.3 °F 47.5 °F 29% 30.18 in 10.0 mi North 6.9 mph - N/A   Clear
10:34 AM 84.0 °F 46.2 °F 27% 30.18 in 7.0 mi Calm Calm - N/A   Clear
10:54 AM 86.0 °F 43.2 °F 22% 30.17 in 10.0 mi East 3.5 mph - N/A   Clear
11:14 AM 88.0 °F 44.8 °F 22% 30.17 in 10.0 mi NE 3.5 mph - N/A   Clear
11:34 AM 88.0 °F 42.8 °F 21% 30.17 in 10.0 mi Calm Calm - N/A   Clear
11:54 AM 88.7 °F 43.3 °F 21% 30.17 in 10.0 mi NE 5.8 mph - N/A   Clear
12:14 PM 90.1 °F 44.4 °F 20% 30.16 in 10.0 mi East 3.5 mph - N/A   Clear
12:34 PM 90.9 °F 45.1 °F 21% 30.15 in 7.0 mi East 8.1 mph - N/A   Clear
12:54 PM 92.5 °F 45.7 °F 20% 30.14 in 10.0 mi East 8.1 mph - N/A   Clear
1:14 PM 94.1 °F 44.2 °F 18% 30.13 in 10.0 mi ESE 9.2 mph - N/A   Clear
1:34 PM 92.7 °F 45.3 °F 20% 30.13 in 10.0 mi ESE 5.8 mph - N/A   Clear
1:54 PM 92.7 °F 41.9 °F 17% 30.12 in 10.0 mi Calm Calm - N/A   Clear
2:14 PM 92.8 °F 39.4 °F 15% 30.12 in 10.0 mi North 12.7 mph 19.6 mph N/A   Clear
2:34 PM 87.8 °F 44.4 °F 22% 30.12 in 10.0 mi ENE 6.9 mph - N/A Rain Light Rain
2:54 PM 91.8 °F 39.6 °F 16% 30.11 in 10.0 mi NE 10.4 mph 18.4 mph N/A   Clear
3:14 PM 92.8 °F 40.8 °F 16% 30.11 in 10.0 mi NE 12.7 mph 17.3 mph N/A   Clear
3:34 PM 92.1 °F 40.1 °F 16% 30.11 in 10.0 mi North 6.9 mph - N/A   Clear
4:14 PM 88.2 °F 41.9 °F 20% 30.11 in 10.0 mi ENE 6.9 mph - N/A   Clear
4:34 PM 89.6 °F 42.6 °F 19% 30.10 in 10.0 mi East 6.9 mph - N/A   Clear
4:54 PM 87.6 °F 38.1 °F 17% 30.10 in 10.0 mi SE 6.9 mph - N/A   Clear
5:14 PM 90.1 °F 38.7 °F 16% 30.10 in 10.0 mi SE 3.5 mph - N/A   Clear
5:34 PM 90.7 °F 39.9 °F 17% 30.09 in 10.0 mi SSE 9.2 mph - N/A   Clear
5:54 PM 90.0 °F 41.5 °F 18% 30.09 in 10.0 mi South 10.4 mph - N/A   Clear
6:14 PM 88.0 °F 42.1 °F 20% 30.10 in 10.0 mi South 9.2 mph - N/A   Clear
6:34 PM 86.7 °F 42.1 °F 21% 30.10 in 10.0 mi South 8.1 mph - N/A   Clear
6:54 PM 84.4 °F 42.6 °F 23% 30.10 in 10.0 mi South 8.1 mph - N/A   Clear
7:14 PM 82.0 °F 44.2 °F 26% 30.10 in 10.0 mi South 6.9 mph - N/A   Clear
7:34 PM 79.9 °F 44.2 °F 28% 30.10 in 10.0 mi South 6.9 mph - N/A   Clear
7:54 PM 77.5 °F 44.4 °F 31% 30.10 in 10.0 mi South 5.8 mph - N/A   Clear
8:14 PM 76.3 °F 44.8 °F 33% 30.10 in 10.0 mi SW 5.8 mph - N/A   Clear
8:34 PM 71.2 °F 49.1 °F 45% 30.10 in 10.0 mi West 3.5 mph - N/A   Clear
8:54 PM 69.6 °F 49.3 °F 48% 30.11 in 10.0 mi Calm Calm - N/A   Clear
9:14 PM 70.0 °F 48.7 °F 47% 30.11 in 10.0 mi Calm Calm - N/A   Clear
9:34 PM 65.8 °F 49.5 °F 55% 30.11 in 10.0 mi SW 3.5 mph - N/A   Clear
9:54 PM 64.8 °F 49.5 °F 58% 30.10 in 10.0 mi West 4.6 mph - N/A   Clear
10:14 PM 61.7 °F 50.7 °F 67% 30.11 in 10.0 mi Calm Calm - N/A   Clear
10:34 PM 65.5 °F 48.4 °F 54% 30.10 in 10.0 mi West 3.5 mph - N/A   Clear
10:54 PM 65.5 °F 48.0 °F 53% 30.09 in 7.0 mi WSW 4.6 mph - N/A   Clear
11:14 PM 64.6 °F 48.0 °F 55% 30.09 in 10.0 mi Calm Calm - N/A   Clear
11:34 PM 63.5 °F 49.8 °F 61% 30.09 in 10.0 mi WSW 3.5 mph - N/A   Clear
11:54 PM 63.1 °F 47.8 °F 57% 30.09 in 10.0 mi WSW 3.5 mph - N/A   Clear